Location: Barruelo
(41.2448°N, 3.8231°W)
Time: 06:07:00
(UTC+00:00)

SOZ - Pass Details

Date: 20 March 2026
Orbit: 299 x 12047 km, 52.0° (Epoch: 14 April)

Event Time Altitude Azimuth Distance (km) Brightness Sun altitude
Exits shadow 05:52:23 - 253° (WSW) 12,128 10.9 -5.8°
Reaches altitude 10° 06:01:46 10° 257° (WSW) 9,866 10.5 -4.1°
Maximum altitude 06:27:17 53° 333° (NNW) 2,219 7.8 0.7°
Drops below altitude 10° 06:33:32 10° 51° (NE) 2,691 9.2 1.9°
Sets 06:35:08 0° 58° (ENE) 3,242 9.8 2.2°
